THORAD DELTA 1 DEB, 9697

Orbit data source: Space-Track

THORAD DELTA 1 DEB, 9697 is space debris in SSO originally from a launch on Fri, 15 Nov 1974 UTC launched from the Air Force Western Test Range (AFWTR). Debris objects in space refer to the collection of defunct objects orbiting the Earth. Examples of debris include non-operational satellites, rocket bodies, and fragments generated from explosions, collisions, or faulty payload assembly.

Loading next visibility...
Identifier
9697, 1974-089DW
Orbit
SSO
Country
Flag of USUS
Related business
Manufacturer
Unknown
Mission
Spacecraft
Bus & Motor
Unknown
Mass
Unknown
Launch date (UTC)
1974-11-15 (51 years ago)
Launch vehicle
Unknown
Launch site
Air Force Western Test Range (AFWTR)
Object type
Payload
Rocket body
Debris
Shape & HBR
Unknown shape, 0.1 m
Radar Cross Section
Small (<0.1 m²)

Expand to show TLE details & history
Last TLE update: 17 hours ago

TLE from 17 hours ago
0 THORAD DELTA 1 DEB
1  9697U 74089DW  26095.26491593 -.00000015  00000-0  18444-3 0  9991
2  9697 101.8055 208.2443 0145631 231.6705 156.6301 12.53775261350144
Epoch: 2026-04-05T06:21Z
TLE epoch observation values (Epoch: 2026-04-05T06:21:28.736Z)
Latitude
28.32505°
Longitude
-87.13539°
Altitude
1,556.851 km
Speed
7.044 km/s
True Right ascension
13h 27m 13s
True Declination
28° 11' 46"
Sunlit
Object was in full shadow at epoch
Visualization orbit readout
Latitude
Unknown
Longitude
Unknown
Altitude
Unknown
Speed
Unknown
Apparent Right ascension
Unknown
Apparent Declination
Unknown
Sunlit
N/A
Visualization observer readout
Local Sidereal Time
04:55:56
Azimuth
Unknown
Elevation
Unknown
Doppler factor
Unknown
Orbital elements
Apogee altitude
1,560.236 km
Perigee altitude
1,332.34 km
Semi-major axis
7,824.425 km
Eccentricity
0.01456
Inclination
101.8055°
RAAN
208.2443°
Arg. of periapsis
231.6705°
True anomaly
157.28116°
Mean anomaly
156.6301°
Eccentric anomaly
156.95671°
Mean motion
3.13592 °/min
Orbital period
114.8 mins
BSTAR
0.00018444
Loading maneuver chart data...
Computing Atmospheric mass density...

Documentation

Showing up to 5 results
|